Regional Weather Roundup
Issued by NWS

Home | Current Version | Previous Version | Graphics & Text | Print | Product List | Glossary On
Versions: 1 2 3 4 5 6 7 8 9 10 11 12 13 14 15 16 17 18 19 20 21 22 23 24 25 26 27 28 29 30 31 32 33 34 35 36 37 38 39 40 41 42 43 44 45 46 47 48 49 50
000
ASUS43 KFSD 180402
RWRSD

WEATHER ROUNDUP FOR SOUTH DAKOTA
NATIONAL WEATHER SERVICE SIOUX FALLS SD
1000 PM CST WED JAN 17 2018

NOTE: "FAIR" INDICATES FEW OR NO CLOUDS BELOW 12,000 FEET WITH NO
SIGNIFICANT WEATHER AND/OR OBSTRUCTIONS TO VISIBILITY.


SDZ001>005-009-010-012>017-180500-
NORTHWEST AND NORTH CENTRAL SOUTH DAKOTA

CITY           SKY/WX    TMP DP  RH WIND       PRES   REMARKS
BUFFALO          N/A     31  21  66 W14       29.96F WCI  21
FAITH            N/A     26  21  81 SW14      30.06F WCI  14
MOBRIDGE       CLEAR     27  20  75 CALM      30.03S
$$

SDZ012>016-024>037-041>051-057-063-072>074-180500-
SOUTHWEST AND SOUTH CENTRAL SOUTH DAKOTA

CITY           SKY/WX    TMP DP  RH WIND       PRES   REMARKS
RAPID CTY ARPT PTCLDY    32  16  51 NW5       30.08F WCI  27
PIERRE         CLEAR     30  24  78 SW10      30.10F WCI  21
CUSTER         PTCLDY    36  15  42 W10G20    30.11F
ELLSWORTH AFB  PTCLDY    27  19  70 W5        30.07F WCI  22
PHILIP         CLEAR     25  20  81 NW6       30.11F WCI  18
PINE RIDGE     CLEAR     29  20  69 SW5       30.12F WCI  24
SPEARFISH        N/A     43  18  36 W15G28    30.07F
WINNER         FAIR      33  23  66 W8        30.13F WCI  26
$$

SDZ004>011-016>023-039-040-180500-
NORTHEAST SOUTH DAKOTA

CITY           SKY/WX    TMP DP  RH WIND       PRES   REMARKS
ABERDEEN       CLEAR     21  18  88 SW7       30.05F WCI  12
WATERTOWN      CLOUDY    15  12  88 SE3       30.06F
BROOKINGS      CLOUDY    18  14  84 S8        30.10F WCI   8
SISSETON         N/A     34  24  67 W18G28    29.98F WCI  23
$$

SDZ017-020-022-023-036>040-048>070-180500-
SOUTHEAST SOUTH DAKOTA

CITY           SKY/WX    TMP DP  RH WIND       PRES   REMARKS
SIOUX FALLS    CLOUDY    26  18  71 SW5       30.14S WCI  20
HURON          CLEAR     26  20  77 SW6       30.11S WCI  19
CHAMBERLAIN    CLEAR     32  27  80 W12       30.12F WCI  23
MITCHELL       CLEAR     26  21  81 SW6       30.14F WCI  19
YANKTON        CLOUDY    27  19  72 SW8       30.17F WCI  19
$$

ABBREVIATIONS USED IN REMARKS
   TC - TEMPERATURE IN CELSIUS
  WCI - WIND CHILL INDEX
   HX - HEAT INDEX
  VSB - VISIBILITY




USA.gov is the U.S. government's official web portal to all federal, state and local government web resources and services.